パンスターズ彗星

C/2020 K1 ( PanSTARRS )

English version
Home page
Updated on March 31, 2024

---------------------------------------------------------------------

・ プロフィール

発見日 2020年5月17日
発見光度 20.6等
発見者 Pan-STARRS2 1.8-m Ritchey-Chretien reflector at Haleakala

・ 写真集

・ 軌道要素

Epoch 2024 Mar. 31.0 TT = JDT 2460400.5
T 2023 May  9.05379 TT                                  Rudenko
q   3.0733794            (2000.0)            P               Q
z  +0.0001159      Peri.  213.98182     +0.06624884     -0.03779538
 +/-0.0000005      Node    94.36210     -0.53603765     +0.84149013
e   0.9996438      Incl.   89.67316     -0.84159059     -0.53894886
>From 3301 observations 2020 Apr. 17-2024 Feb. 24, mean residual 0".5.

・ 星図

・ 光度変化

        m1 = 4.5 + 5 logΔ + 11.0 log r(t + 120)

        ※ 灰色の曲線は、m1 = 2.0 + 5 logΔ + 13.0 log r の光度曲線です。

---------------------------------------------------------------------

軌道要素はM.P.E.C. 2024-D126に掲載されたものです。
星図はステラナビゲータ Ver.10 (アストロアーツ) で作成したものです。
光度グラフはComet for Windowsで作成したものです。

---------------------------------------------------------------------

Copyright(C) Seiichi Yoshida (comet@aerith.net). All rights reserved.